Home > Weather > Reading > Past weeks

Flag for United Kingdom Weather for the Past 2 Weeks in Reading, England, United Kingdom

Now
32 °F

Clear.


Feels Like: 32 °F
Forecast: 34 / 56 °F
Wind: 1 mph from Southeast

Location: Benson

Current Time: Apr 30, 2016 at 1:16:40 AM

Latest Report: Apr 29, 2016 at 11:50 PM


Visibility: N/A

Pressure: 29.98 "Hg

Humidity: 93%

Dew Point: 30 °F

Location of ReadingLocation

Historic Weather in Reading — Graph

°F

Reading Temperature Yesterday

Maximum temperature yesterday: 50 °F (at 12:50 PM)
Minimum temperature yesterday: 36 °F (at 10:50 PM)
Average temperature yesterday: 43 °F

High & Low Weather Summary for the Past Weeks

 TemperatureHumidityPressure
High61 °F (Apr 21, 2:50 PM)100% (Apr 15, 3:50 AM)30.45 "Hg (Apr 15, 3:50 AM)
Low25 °F (Apr 28, 5:50 AM)37% (Apr 26, 2:50 PM)29.45 "Hg (Apr 15, 4:50 PM)
Average44 °F74%30.00 "Hg
* Reported Apr 14 10:50 PM — Apr 29 10:50 PM, Reading, Weather by CustomWeather, © 2016

Note: Actual official high and low records may vary slightly from our data, if they occured in-between our weather recording intervals... More about our weather records

Advertising

Reading Weather History for the Previous 24 Hours

Scroll right to see more
 ConditionsComfort  
Time TempWeatherWind HumidityBarometerVisibility
10:50 PM
Fri, Apr 29
36 °FClear.1 mph87%29.98 "HgN/A
9:50 PM39 °FClear.2 mph81%29.95 "HgN/A
8:50 PM43 °FPassing clouds.3 mph66%29.92 "HgN/A
7:50 PM46 °FPassing clouds.10 mph57%29.89 "HgN/A
6:50 PM48 °FPartly sunny.12 mph54%29.86 "HgN/A
5:50 PM50 °FScattered clouds.7 mph58%29.86 "HgN/A
4:50 PM48 °FScattered showers. Scattered clouds.13 mph62%29.86 "HgN/A
3:50 PM48 °FScattered clouds.13 mph54%29.83 "HgN/A
2:50 PM43 °FPassing clouds.14 mph76%29.86 "HgN/A
1:50 PM46 °FScattered clouds.16 mph53%29.80 "HgN/A
12:50 PM50 °FScattered clouds.17 mph54%29.80 "HgN/A
11:50 AM48 °FScattered showers. Partly sunny.16 mph50%29.80 "HgN/A
10:50 AM46 °FScattered clouds.18 mph50%29.80 "HgN/A
8:50 AM43 °FPassing clouds.15 mph71%29.80 "HgN/A
7:50 AM39 °FScattered clouds.10 mph81%29.80 "HgN/A
6:50 AM37 °FSunny.12 mph81%29.77 "Hg10 mi
5:50 AM37 °FClear.9 mph81%29.77 "Hg10 mi
4:50 AM39 °FClear.9 mph75%29.77 "Hg10 mi
3:50 AM39 °FPassing clouds.9 mph75%29.77 "HgN/A
2:50 AM39 °FClear.8 mph81%29.77 "Hg10 mi
1:50 AM41 °FClear.9 mph81%29.77 "Hg10 mi
Weather by CustomWeather, © 2016

See weather overviewHow to use our weather pages